[Iaude] MPEC N73: 2024 MS2 [a=0.93,e=0.28,i=14.4,H=25.9]
    mpec at cfa.harvard.edu 
    mpec at cfa.harvard.edu
       
    Sat Jul  6 06:48:00 EDT 2024
    
    
  
M.P.E.C. 2024-N73                                  Issued 2024 July 6, 10:46 UT
     The Minor Planet Electronic Circulars contain information on unusual
         minor planets, routine data on comets and natural satellites,
         and occasional editorial announcements.  They are published
    on behalf of Division F of the International Astronomical Union by the
          Minor Planet Center, Smithsonian Astrophysical Observatory,
                          Cambridge, MA 02138, U.S.A.
			  
             Prepared using the Tamkin Foundation Computer Network
                              MPC at CFA.HARVARD.EDU
            URL https://www.minorplanetcenter.net/    ISSN 1523-6714
                                    2024 MS2                                    
Observations:
     K24M02S* C2024 06 30.37008715 39 22.222+14 46 13.17         21.38wXEN073F51
     K24M02S  C2024 06 30.38236815 39 29.726+14 46 23.08         22.22wXEN073F51
     K24M02S  C2024 06 30.39484615 39 37.463+14 46 32.92         20.94wXEN073F51
     K24M02S  C2024 06 30.40717215 39 45.061+14 46 42.23         21.36wXEN073F51
     K24M02S  C2024 06 30.47200115 40 25.493+14 47 26.55         20.68GVEN073F51
     K24M02S  C2024 06 30.47264415 40 25.859+14 47 27.09         20.36GVEN073F51
     K24M02S 6C2024 07 04.90975 16 12 18.90 +15 12 57.8                VEN073Z84
     K24M02S 6C2024 07 04.93403 16 12 24.51 +15 12 58.5          21.8 GVEN073Z84
     K24M02S 6C2024 07 04.95840 16 12 30.24 +15 12 57.5          21.6 GVEN073Z84
     K24M02S KC2024 07 06.13245916 17 27.34 +15 12 46.1          22.7 GVEN073H21
     K24M02S KC2024 07 06.13824016 17 28.47 +15 12 45.8          22.2 GVEN073H21
     K24M02S KC2024 07 06.14180516 17 29.17 +15 12 45.1          22.6 GVEN073H21
Observer details:
F51 Pan-STARRS 1, Haleakala.  Observers J. Herman, T. Lowe, P. Minguez, A.
    Schultz, I. Smith.  Measurers K. Chambers, T. de Boer, J. Fairlamb, H.
    Gao, M. Huber, C.-C. Lin, E. Magnier, Y. Ramanjooloo, R. Wainscoat, R.
    Weryk.  1.8-m Ritchey-Chretien + CCD.
H21 Astronomical Research Observatory, Westfield.  Observer R. Holmes.
    Measurers T. Linder, R. Holmes, L. Horn.  1.3-m f/4.0 astrograph + CCD.
Z84 Calar Alto-Schmidt.  Observers M. Micheli, R. Kresken.  Measurers R.
    Kresken, M. Micheli, F. Ocana, L. Conversi.  0.8-m f/3 Schmidt + CCD.
Orbital elements:
2024 MS2                                                 Earth MOID = 0.0014 AU
Epoch 2024 Mar. 31.0 TT = JDT 2460400.5                 MPC                     
M 359.37383              (2000.0)            P               Q                  
n   1.09545200     Peri.  236.88340     -0.82920156     -0.50055408             
a   0.9319812      Node   271.93614     +0.55874715     -0.73032311             
e   0.2838146      Incl.   14.41123     +0.01504670     -0.46483736             
P   0.90           H   25.93          G   0.15           U   7                  
Residuals in seconds of arc
240630 F51  0.3+  0.1-    240630 F51  0.4+  0.1-    240704 Z84  0.0   0.5-
240630 F51  0.5-  0.0     240630 F51  0.2-  0.0     240706 H21  0.2-  0.3+
240630 F51  0.2+  0.1+    240704 Z84  0.4+  0.1-    240706 H21  0.0   0.3+
240630 F51  0.1+  0.1+    240704 Z84  0.4-  0.2+    240706 H21  0.2+  0.2-
Ephemeris:
2024 MS2                 a,e,i = 0.93, 0.28, 14                  q = 0.6675
Date    TT    R. A. (2000) Decl.     Delta      r    Elong.  Phase     V
2024 06 06    05 31 21.9 -14 25 13   0.1141  0.9275    38.0   137.6    27.6
...
2024 06 21    07 49 48.9 -12 12 29   0.02285 1.0001    44.8   134.3    23.9
...
2024 06 29    15 20 18.9 +14 17 11   0.03633 1.0352   119.9    58.4    20.9
...
2024 07 05    16 12 44.0 +15 13 47   0.07237 1.0596   124.7    52.1    22.3
2024 07 06    16 16 56.4 +15 13 38   0.07855 1.0634   124.7    51.8    22.5
2024 07 07    16 20 35.7 +15 12 25   0.08474 1.0673   124.7    51.5    22.6
...
2024 07 13    16 35 49.0 +14 51 12   0.1223  1.0892   123.7    50.9    23.4
...
2024 07 21    16 48 30.6 +14 03 06   0.1728  1.1155   121.2    51.1    24.2
...
2024 08 05    17 07 08.6 +12 02 40   0.2684  1.1553   115.4    52.5    25.3
A. U. Tomatic                (C) Copyright 2024 MPC           M.P.E.C. 2024-N73
    
    
More information about the Iaude
mailing list